Home > Time Zones > World Clock > Weather > India > Churu > Past weeks

Flag for India Weather past 2 weeks in Churu, Rajasthan, India

Now
90 °F

Haze.


Feels Like: 90 °F
Forecast: 74 / 96 °F
Wind: 8 mph from Northwest

Location: Jaipur / Sanganer

Current Time: Sep 20, 2014 at 7:51:53 PM

Latest Report: Sep 20, 2014 at 6:00 PM


Visibility: 2 mi

Pressure: 29.65 "Hg

Humidity: 41%

Dew point: 63 °F

Location of ChuruLocation

Historic Weather in Churu — Graph

°F

Churu temperature yesterday

Maximum temperature yesterday: 93 °F (at 3:00 PM)
Minimum temperature yesterday: 72 °F (at 3:00 AM)
Average temperature yesterday: 84 °F

Past Weeks' High & Low Weather Summary

 TemperatureHumidityPressure
High93 °F (Sep 10, 1:00 PM)100% (Sep 11, 8:00 PM)29.83 "Hg (Sep 11, 8:00 PM)
Low72 °F (Sep 19, 3:00 AM)36% (Sep 19, 4:00 PM)29.56 "Hg (Sep 5, 6:00 PM)
Average83 °F73%29.73 "Hg
* Reported Sep 5 6:00 PM — Sep 20 6:00 PM, Churu, Weather by CustomWeather, © 2014

Note: Actual official high and low records may vary slightly from our data, if they occured in-between our weather recording intervals... More about our weather records

Advertising

Churu weather history for previous 24 hours

 ConditionsComfort  
Time TempWeatherWind HumidityBarometerVisibility
6:00 PM
Sep 20
90 °FHaze.8 mph41%29.65 "Hg2 mi
5:00 PM91 °FHaze.9 mph38%29.65 "Hg2 mi
4:00 PM93 °FHaze.8 mph36%29.65 "Hg2 mi
3:00 PM93 °FHaze.12 mph39%29.68 "Hg2 mi
2:00 PM93 °FHaze.9 mph44%29.71 "Hg2 mi
1:00 PM91 °FHaze.12 mph46%29.74 "Hg2 mi
12:00 PM90 °FHaze.10 mph52%29.77 "Hg2 mi
11:00 AM88 °FHaze.9 mph55%29.80 "Hg2 mi
10:00 AM84 °FHaze.12 mph62%29.80 "Hg2 mi
9:00 AM82 °FHaze.10 mph62%29.77 "Hg2 mi
8:00 AM79 °FHaze.10 mph74%29.77 "Hg2 mi
7:00 AM79 °FHaze.6 mph70%29.74 "Hg2 mi
6:00 AM79 °FHaze.6 mph70%29.74 "Hg2 mi
5:00 AM79 °FHaze.6 mph70%29.74 "Hg2 mi
4:00 AM79 °FHaze.5 mph70%29.71 "Hg2 mi
3:00 AM79 °FHaze.6 mph70%29.71 "Hg2 mi
2:00 AM79 °FHaze.3 mph70%29.71 "Hg2 mi
1:00 AM79 °FHaze.5 mph70%29.74 "Hg2 mi
12:00 AM81 °FHaze.5 mph66%29.74 "Hg2 mi
11:00 PM
Sep 19
81 °FHaze.5 mph70%29.74 "Hg2 mi
10:00 PM82 °FHaze.7 mph62%29.77 "Hg2 mi
9:00 PM84 °FHaze.6 mph58%29.74 "Hg2 mi
8:00 PM86 °FHaze.5 mph55%29.74 "Hg2 mi
Weather by CustomWeather, © 2014

See weather overviewHow to use our weather pages